Regional Weather Roundup
Issued by NWS

Home | Current Version | Previous Version | Text Only | Print | Product List | Glossary On
Versions: 1 2 3 4 5 6 7 8 9 10 11 12 13 14 15 16 17 18 19 20 21 22 23 24 25 26 27 28 29 30 31 32 33 34 35 36 37 38 39 40 41 42 43 44 45 46 47 48 49 50
000
ASUS43 KTOP 301859
RWRKS

WEATHER ROUNDUP FOR KANSAS
NATIONAL WEATHER SERVICE GOODLAND KS
200 PM CDT FRI SEP 30 2016

NOTE:  "FAIR" INDICATES FEW OR NO CLOUDS BELOW 12,000 FEET WITH NO
SIGNIFICANT WEATHER AND/OR OBSTRUCTIONS TO VISIBILITY.

KSZ001>006-013>018-027>032-041>047-302000-
NORTHWEST KANSAS

CITY           SKY/WX    TMP DP  RH WIND       PRES   REMARKS
GOODLAND       SUNNY     70  46  42 SE18G28   30.17F
HAYS           MOSUNNY   70  45  40 SE12      30.20F
HILL CITY      MOSUNNY   71  48  43 SE10      30.20F
RUSSELL        MOSUNNY   69  46  43 SE7       30.20F
$$

KSZ061>065-074>080-084>089-302000-
SOUTHWEST KANSAS

CITY           SKY/WX    TMP DP  RH WIND       PRES   REMARKS
DODGE CITY     MOSUNNY   72  45  37 SE14      30.20F
ELKHART          N/A     82  50  32 S17         N/A
GARDEN CITY    SUNNY     73  47  39 S13G25    30.17F
GREAT BEND     CLOUDY    72  46  40 SE5       30.20F
LIBERAL        SUNNY     77  48  36 S16G25    30.17F
$$

KSZ066>073-081>083-090>101-302000-
SOUTHEAST KANSAS

CITY           SKY/WX    TMP DP  RH WIND       PRES   REMARKS
CHANUTE        SUNNY     75  49  39 N5        30.18F
COFFEYVILLE    SUNNY     76  49  38 N8        30.17F
HUTCHINSON     SUNNY     71  46  40 VRB3      30.20F
MEDICINE LODGE   N/A     69  47  45 SE5       30.20F
NEWTON         SUNNY     71  46  40 VRB6      30.21F
PARSONS        SUNNY     76  48  37 VRB7      30.19F
WICHITA INTL   MOSUNNY   74  49  41 W6        30.20F
WICHITA JABRA  SUNNY     72  49  44 NW5       30.20F
WICHITA MCCONL SUNNY     72  49  43 VRB2      30.20F
WINFIELD       SUNNY     71  49  45 VRB5      30.21F
$$

KSZ007>012-019>026-033>040-048>060-102>105-302000-
NORTHEAST KANSAS

CITY           SKY/WX    TMP DP  RH WIND       PRES   REMARKS
CONCORDIA      SUNNY     73  47  39 NE8       30.21F
EMPORIA        SUNNY     73  49  42 NE7       30.19F
LAWRENCE       SUNNY     74  52  46 NE12      30.19F
MANHATTAN      SUNNY     73  51  46 CALM      30.20F
OLATHE IND     SUNNY     72  53  51 NW13      30.19F
OLATHE EXE     SUNNY     72  50  45 N12       30.17F
SALINA         SUNNY     73  48  41 E6        30.20F
TOPEKA BILLARD SUNNY     73  54  51 VRB7      30.19F
TOPEKA FORBES  SUNNY     74  52  46 N10       30.19F
$$



USA.gov is the U.S. government's official web portal to all federal, state and local government web resources and services.